| time (UTC) | temp C | wind direction | speed KPH | gust KPH | rain 1hr cm | rain 24hr cm | rain mn cm | humidity % | barometer mb |
| 20260505041116 | 0 | 315 | 41.8 | 38.6 | 0.00 | 0.74 | 0.64 | 1 | 1021.4 |
| 20260505040138 | 0 | 315 | 41.8 | 38.6 | 0.00 | 0.74 | 0.64 | 1 | 1021.4 |
| 20260505035116 | 21 | 335 | 11.3 | 22.5 | 0.00 | 1.07 | 0.81 | 47 | 1018.7 |
| 20260505034116 | 0 | 315 | 41.8 | 38.6 | 0.00 | 0.74 | 0.64 | 1 | 1021.4 |
| 20260505033116 | 21 | 347 | 11.3 | 20.9 | 0.00 | 1.09 | 0.81 | 45 | 1018.6 |
| 20260505032116 | 21 | 338 | 9.7 | 19.3 | 0.00 | 1.09 | 0.81 | 47 | 1018.7 |
| 20260505031116 | 21 | 316 | 6.4 | 16.1 | 0.00 | 1.09 | 0.81 | 51 | 1018.8 |
| 20260505030117 | 21 | 320 | 6.4 | 14.5 | 0.00 | 1.09 | 0.81 | 52 | 1018.7 |
| 20260505025138 | 20 | 305 | 8.0 | 17.7 | 0.00 | 1.09 | 0.81 | 54 | 1019.2 |
| 20260505025116 | 0 | 315 | 41.8 | 38.6 | 0.00 | 0.74 | 0.64 | 1 | 1022.4 |
| 20260505024117 | 0 | 315 | 41.8 | 38.6 | 0.00 | 0.74 | 0.64 | 1 | 1023.4 |
| 20260505023115 | 20 | 324 | 8.0 | 16.1 | 0.00 | 1.09 | 0.81 | 58 | 1019.6 |
| 20260505022116 | 20 | 326 | 11.3 | 17.7 | 0.00 | 1.09 | 0.81 | 58 | 1019.7 |
| 20260505021137 | 0 | 315 | 41.8 | 38.6 | 0.00 | 0.74 | 0.64 | 1 | 1024.4 |
| 20260505020137 | 0 | 315 | 41.8 | 38.6 | 0.00 | 0.74 | 0.64 | 1 | 1024.4 |
| 20260505015116 | 0 | 315 | 41.8 | 38.6 | 0.00 | 0.74 | 0.64 | 1 | 1024.4 |
| 20260505014115 | 20 | 294 | 8.0 | 17.7 | 0.00 | 1.09 | 0.81 | 51 | 1020.3 |
| 20260505013116 | 20 | 300 | 6.4 | 12.9 | 0.00 | 1.09 | 0.81 | 52 | 1020.3 |
| 20260505012115 | 19 | 276 | 6.4 | 12.9 | 0.00 | 1.09 | 0.81 | 51 | 1020.7 |
| 20260505011115 | 0 | 315 | 41.8 | 38.6 | 0.00 | 0.74 | 0.64 | 1 | 1024.4 |
| 20260505010117 | 19 | 269 | 4.8 | 14.5 | 0.00 | 1.09 | 0.81 | 53 | 1020.8 |
| 20260505005116 | 19 | 279 | 4.8 | 14.5 | 0.00 | 1.09 | 0.81 | 51 | 1020.9 |
| 20260505004116 | 0 | 315 | 41.8 | 38.6 | 0.00 | 0.74 | 0.64 | 1 | 1025.4 |
| 20260505003116 | 20 | 269 | 4.8 | 11.3 | 0.00 | 1.09 | 0.81 | 53 | 1021.1 |
| 20260505002115 | 0 | 315 | 41.8 | 38.6 | 0.00 | 0.74 | 0.64 | 1 | 1024.4 |
| 20260505001115 | 0 | 315 | 41.8 | 38.6 | 0.00 | 0.74 | 0.64 | 1 | 1024.4 |
| 20260505000116 | 18 | 262 | 1.6 | 11.3 | 0.00 | 1.09 | 0.81 | 60 | 1021.0 |
| 20260504235137 | 18 | 260 | 1.6 | 8.0 | 0.00 | 1.09 | 0.81 | 61 | 1021.2 |
| 20260504234116 | 0 | 315 | 41.8 | 38.6 | 0.00 | 0.74 | 0.64 | 1 | 1024.4 |
| 20260504233136 | 18 | 274 | 3.2 | 9.7 | 0.00 | 1.09 | 0.81 | 64 | 1021.1 |
| 20260504232136 | 17 | 252 | 1.6 | 6.4 | 0.00 | 1.09 | 0.81 | 67 | 1020.9 |
| 20260504231116 | 0 | 315 | 41.8 | 38.6 | 0.00 | 0.74 | 0.64 | 1 | 1024.4 |
| 20260504230116 | 0 | 315 | 41.8 | 38.6 | 0.00 | 0.74 | 0.64 | 1 | 1024.4 |
| 20260504225115 | 17 | 241 | 4.8 | 11.3 | 0.00 | 1.09 | 0.81 | 72 | 1021.2 |
| 20260504224116 | 17 | 228 | 3.2 | 9.7 | 0.00 | 1.09 | 0.81 | 75 | 1021.1 |
| 20260504223116 | 17 | 246 | 4.8 | 12.9 | 0.00 | 1.09 | 0.81 | 75 | 1021.0 |
| 20260504222115 | 0 | 315 | 41.8 | 38.6 | 0.00 | 0.74 | 0.64 | 1 | 1024.4 |
| 20260504221115 | 0 | 315 | 41.8 | 38.6 | 0.00 | 0.74 | 0.64 | 1 | 1023.4 |
| 20260504220116 | 0 | 315 | 41.8 | 38.6 | 0.00 | 0.74 | 0.64 | 1 | 1023.4 |
| 20260504215116 | 17 | 302 | 3.2 | 8.0 | 0.00 | 1.09 | 0.81 | 89 | 1020.2 |
| 20260504214116 | 17 | 300 | 6.4 | 12.9 | 0.00 | 1.09 | 0.81 | 90 | 1020.1 |
| 20260504213115 | 16 | 294 | 6.4 | 11.3 | 0.00 | 1.09 | 0.81 | 92 | 1019.8 |
| 20260504212115 | 0 | 315 | 41.8 | 38.6 | 0.00 | 0.74 | 0.64 | 1 | 1022.4 |
| 20260504211116 | 0 | 315 | 41.8 | 38.6 | 0.00 | 0.74 | 0.64 | 1 | 1022.4 |
| 20260504210136 | 17 | 0 | 0.0 | 0.0 | 0.00 | 1.09 | 0.81 | 95 | 1019.1 |
| 20260504205136 | 0 | 315 | 41.8 | 38.6 | 0.00 | 0.74 | 0.64 | 1 | 1022.4 |
| 20260504204115 | 17 | 0 | 0.0 | 0.0 | 0.00 | 1.09 | 0.81 | 94 | 1018.6 |
| 20260504203116 | 17 | 0 | 0.0 | 0.0 | 0.00 | 1.09 | 0.81 | 94 | 1018.4 |
| 20260504202136 | 0 | 315 | 41.8 | 38.6 | 0.00 | 0.74 | 0.64 | 1 | 1022.4 |
| 20260504201115 | 0 | 315 | 41.8 | 38.6 | 0.00 | 0.74 | 0.64 | 1 | 1022.4 |
| 20260504200116 | 0 | 315 | 41.8 | 38.6 | 0.00 | 0.74 | 0.64 | 1 | 1021.4 |
| 20260504195115 | 17 | 0 | 0.0 | 0.0 | 0.00 | 1.09 | 0.81 | 94 | 1018.2 |
| 20260504194115 | 17 | 292 | 0.0 | 3.2 | 0.00 | 1.09 | 0.81 | 93 | 1018.1 |
| 20260504193136 | 17 | 301 | 1.6 | 3.2 | 0.00 | 1.09 | 0.81 | 93 | 1018.0 |
| 20260504192116 | 0 | 315 | 41.8 | 38.6 | 0.00 | 0.74 | 0.64 | 1 | 1021.4 |
| 20260504191115 | 17 | 301 | 1.6 | 4.8 | 0.00 | 1.09 | 0.81 | 94 | 1018.1 |
| 20260504190116 | 17 | 311 | 0.0 | 1.6 | 0.00 | 1.09 | 0.81 | 94 | 1018.1 |
| 20260504185115 | 17 | 327 | 0.0 | 3.2 | 0.00 | 1.09 | 0.81 | 94 | 1018.0 |
| 20260504184115 | 17 | 338 | 1.6 | 6.4 | 0.00 | 1.09 | 0.81 | 94 | 1017.9 |
| 20260504183115 | 0 | 315 | 41.8 | 38.6 | 0.00 | 0.74 | 0.64 | 1 | 1021.4 |
| 20260504182116 | 17 | 336 | 0.0 | 4.8 | 0.00 | 1.09 | 0.81 | 94 | 1017.9 |
| 20260504181115 | 0 | 315 | 41.8 | 38.6 | 0.00 | 0.74 | 0.64 | 1 | 1021.4 |
| 20260504180136 | 17 | 142 | 1.6 | 3.2 | 0.00 | 1.09 | 0.81 | 94 | 1017.9 |
| 20260504175115 | 0 | 315 | 41.8 | 38.6 | 0.00 | 0.74 | 0.64 | 1 | 1021.4 |
| 20260504174114 | 0 | 315 | 41.8 | 38.6 | 0.00 | 0.74 | 0.64 | 1 | 1021.4 |
| 20260504173115 | 17 | 297 | 1.6 | 4.8 | 0.00 | 1.09 | 0.81 | 93 | 1017.5 |
| 20260504172135 | 17 | 292 | 1.6 | 8.0 | 0.00 | 1.09 | 0.81 | 94 | 1017.6 |
| 20260504172114 | 0 | 315 | 41.8 | 38.6 | 0.00 | 0.74 | 0.64 | 1 | 1021.4 |
| 20260504171115 | 17 | 0 | 0.0 | 0.0 | 0.00 | 1.09 | 0.81 | 93 | 1017.5 |
| 20260504170137 | 17 | 310 | 0.0 | 3.2 | 0.00 | 1.09 | 0.81 | 93 | 1017.2 |
| 20260504160115 | 17 | 327 | 3.2 | 9.7 | 0.69 | 1.09 | 0.81 | 93 | 1017.9 |
| 20260504151115 | 0 | 315 | 41.8 | 38.6 | 0.20 | 0.30 | 0.20 | 1 | 1021.4 |
| 20260504150115 | 17 | 312 | 8.0 | 14.5 | 0.13 | 0.41 | 0.13 | 94 | 1018.1 |
| 20260504141115 | 17 | 173 | 0.0 | 3.2 | 0.00 | 0.28 | 0.00 | 94 | 1017.4 |
| 20260504140137 | 0 | 315 | 41.8 | 38.6 | 0.00 | 0.10 | 0.00 | 1 | 1021.4 |
| 20260504130115 | 17 | 80 | 0.0 | 0.0 | 0.00 | 0.28 | 0.28 | 94 | 1017.5 |
| 20260504120114 | 0 | 315 | 41.8 | 38.6 | 0.00 | 0.10 | 0.10 | 1 | 1021.4 |
| 20260504110115 | 17 | 0 | 0.0 | 0.0 | 0.00 | 0.28 | 0.28 | 93 | 1018.1 |
| 20260504100115 | 0 | 315 | 41.8 | 38.6 | 0.10 | 0.10 | 0.10 | 1 | 1021.4 |
| 20260504090114 | 0 | 315 | 41.8 | 38.6 | 0.00 | 0.00 | 0.00 | 1 | 1021.4 |
| 20260504081134 | 0 | 315 | 41.8 | 38.6 | 0.00 | 0.00 | 0.00 | 1 | 1021.4 |
| 20260504080114 | 18 | 325 | 3.2 | 8.0 | 0.03 | 0.13 | 0.13 | 88 | 1017.4 |
| 20260504070113 | 0 | 315 | 41.8 | 38.6 | 0.00 | 0.00 | 0.00 | 1 | 1020.4 |
| 20260504060114 | 0 | 315 | 41.8 | 38.6 | 0.00 | 0.00 | 0.00 | 1 | 1020.4 |
| 20260504050135 | 0 | 315 | 41.8 | 38.6 | 0.00 | 0.00 | 0.00 | 1 | 1020.4 |
| 20260504045113 | 21 | 253 | 0.0 | 8.0 | 0.00 | 0.03 | 0.03 | 76 | 1016.6 |